[[{"header":{"parameterUnit":"m.s-1","parameterCategory":1,"la1":30.2991,"la2":30.254,"lo1":-89.0895,"lo2":-89.0444,"dy":0.0017,"dx":0.0017,"nx":28,"ny":28,"refTime":"2024-10-10T21:00:00:Z","depth":0,"parameterNumber":2,"parameterNumberName":"U-component_of_WINDS"},"data":[0,0,0,0,0,0,0,0,0,0,0,0,0,0,0,0,0,0,0,0,0,0,0,0,0,0,0,0,0,0,0,0,0,0,0,0,0,0,0,0,0,0,0,0,0,0,0,0,0,0,0,0,0,0,0,0,0,0,-1.9467,-1.9467,0,-1.9551,-1.9552,-1.9553,-1.951,-1.9507,-1.9505,-1.9503,-1.9594,-1.9598,-1.9603,0,0,0,0,0,0,0,0,0,0,0,0,0,-1.9271,-1.9275,-1.9466,-1.9468,-1.9469,-1.9551,-1.9552,-1.9553,-1.951,-1.9507,-1.9505,-1.9502,-1.9592,-1.9598,-1.9603,0,0,0,0,0,0,0,0,0,0,0,0,0,-1.9356,-1.9276,-1.9466,-1.9457,-1.9457,-1.9551,-1.9552,-1.9554,-1.9511,-1.9507,-1.9504,-1.9501,-1.9591,-1.9597,-1.9604,-1.9713,0,0,-1.9625,-1.9628,0,0,0,0,0,0,0,0,-1.9351,-1.9363,-1.9457,-1.9458,-1.9458,-1.9516,-1.9516,-1.9607,-1.9512,-1.949,-1.9503,-1.9499,-1.9571,-1.9579,-1.9603,-1.9718,-1.9722,-1.9625,-1.9629,-1.9632,-1.9634,0,0,0,0,0,0,0,-1.9345,-1.9359,-1.95,-1.9459,-1.9459,-1.945,-1.9458,-1.9534,-1.9549,-1.9492,-1.9489,-1.9499,-1.9571,-1.9596,-1.9605,-1.9723,-1.9625,-1.9631,-1.9635,-1.9638,-1.9933,-1.9936,0,0,0,0,0,0,-1.9339,-1.9355,-1.9497,-1.9503,-1.9395,-1.9456,-1.9465,-1.9501,-1.9548,-1.9552,-1.9502,-1.9497,-1.9586,-1.9597,-1.9608,-1.974,-1.9632,-1.9639,-1.9643,-1.9929,-1.9934,-1.9938,0,0,0,0,0,0,-1.9335,-1.9352,-1.9494,-1.9428,-1.9445,-1.9463,-1.9504,-1.9505,-1.953,-1.9556,-1.9558,-1.9525,-1.9584,-1.9598,-1.9687,-1.9742,-1.9642,-1.9648,-1.9925,-1.993,-1.9936,-2.0004,0,0,0,0,0,0,-1.933,-1.9351,-1.9392,-1.9429,-1.9449,-1.9572,-1.9507,-1.9509,-1.9541,-1.9536,-1.9578,-1.9582,-1.9583,-1.9677,-1.9694,-1.975,-1.9653,-1.992,-1.9927,-1.9934,-1.9997,-2.0012,-2.0024,0,0,0,0,0,-1.9323,-1.9409,-1.9395,-1.9412,-1.95,-1.9575,-1.9586,-1.9584,-1.9546,-1.9588,-1.9604,-1.9581,-1.9733,-1.9687,-1.9705,-1.9764,-1.9916,-1.9925,-1.9933,-1.9991,-2.0009,-2.0024,0,0,0,0,0,0,-1.938,-1.9414,-1.9398,-1.9498,-1.9534,-1.9567,-1.962,-1.9603,-1.9651,-1.9643,-1.964,-1.965,-1.9743,-1.9762,-1.971,-1.9873,-1.9819,-1.9832,-1.9857,-1.9874,-1.9887,-1.9881,-1.9659,0,0,0,0,0,-1.9404,-1.946,-1.9487,-1.9573,-1.9591,-1.9603,-1.9635,-1.963,-1.9668,-1.9683,-1.9706,-1.9744,-1.98,-1.9838,-1.9891,-1.9999,-2.0009,-2.0049,-2.0062,-2.0073,-2.0084,-2.0144,-2.0162,-1.9966,-1.9965,-1.9965,0,0,-1.9454,-1.948,-1.9516,-1.9585,-1.9612,-1.9672,-1.9616,-1.9682,-1.9726,-1.9693,-1.9779,-1.9797,-1.9839,-1.9939,-1.9984,-1.9958,-2.014,-2.0084,-2.0092,-2.0098,-2.0155,-2.0173,-2.019,-1.9971,-1.997,-1.9969,0,0,-1.9577,-1.9602,-1.9676,-1.9704,-1.9745,-1.9752,-1.977,-1.9806,-1.9816,-1.9902,-1.9878,-1.9932,-2.0029,-2.006,-2.0089,-2.0223,-2.0204,-2.0241,-2.0311,-2.0369,-2.0385,-2.0399,-2.0448,-2.0465,-2.0252,-2.0252,-2.0252,0,-1.9636,-1.9724,-1.9717,-1.9785,-1.9816,-1.9787,-1.9864,-1.9891,-1.9948,-1.9971,-1.9941,-2.0062,-2.0089,-2.0195,-2.0228,-2.0252,-2.0273,-2.0237,-2.0383,-2.0397,-2.0409,-2.0456,-2.0475,-2.0256,-2.0256,-2.0255,-2.0255,0,-1.9794,-1.9855,-1.9911,-1.9965,-2.0003,-2.0075,-2.008,-2.0119,-2.0111,-2.0121,-2.0209,-2.0239,-2.0299,-2.0323,-2.0316,-2.043,-2.0412,-2.0382,-2.0329,-2.0433,-2.0477,-2.0495,-2.0262,-2.0261,-2.026,-2.0258,0,0,-1.9957,-2.0006,-2.0026,-2.0051,-2.0094,-2.0142,-2.0212,-2.0269,-2.0303,-2.0343,-2.0403,-2.0486,-2.0458,-2.0491,-2.0487,-2.0537,-2.0643,-2.0502,-2.0502,-2.0528,-2.0772,-2.0795,-2.0816,-2.063,-2.0633,-2.0636,-2.0768,0,-2.0084,-2.0206,-2.0202,-2.0317,-2.0374,-2.0347,-2.0408,-2.0442,-2.0453,-2.0505,-2.0517,-2.0577,-2.0535,-2.0555,-2.0603,-2.062,-2.0693,-2.061,-2.0688,-2.069,-2.0679,-2.0839,-2.0864,-2.0987,-2.0786,-2.0788,-2.0791,0,-2.0249,-2.0293,-2.0413,-2.0447,-2.0471,-2.0527,-2.0578,-2.0627,-2.0665,-2.067,-2.0706,-2.0693,-2.0766,-2.0709,-2.081,-2.0754,-2.0785,-2.0798,-2.0803,-2.0812,-2.0748,-2.0853,-2.1027,-2.1046,-2.0817,-2.0815,-2.0813,0,-2.0357,-2.0447,-2.053,-2.0552,-2.0594,-2.0633,-2.0653,-2.0687,-2.0721,-2.0767,-2.0789,-2.0843,-2.0873,-2.0915,-2.0919,-2.0876,-2.1021,-2.0964,-2.1029,-2.1029,-2.1062,-2.106,-2.1245,-2.1079,-2.1079,-2.1079,-2.1078,0,-2.0501,-2.0576,-2.058,-2.0631,-2.0715,-2.0709,-2.0792,-2.0808,-2.0839,-2.0894,-2.0873,-2.0926,-2.0926,-2.098,-2.0983,-2.1067,-2.108,-2.1087,-2.1087,-2.109,-2.1089,-2.1112,-2.1104,-2.1084,-2.1082,-2.1081,-2.1081,0,-2.0637,-2.0642,-2.0732,-2.0763,-2.0773,-2.0833,-2.0861,-2.0911,-2.0919,-2.0989,-2.1006,-2.1021,-2.1083,-2.1089,-2.1162,-2.1164,-2.1266,-2.1256,-2.1253,-2.1252,-2.1317,-2.1311,-2.1523,-2.1552,-2.1367,-2.1368,-2.137,0,-2.0729,-2.0786,-2.0823,-2.0858,-2.0879,-2.0935,-2.097,-2.0967,-2.1004,-2.1051,-2.1095,-2.1155,-2.1203,-2.1304,-2.1322,-2.1378,-2.137,-2.1441,-2.1379,-2.138,-2.1373,-2.137,-2.1377,-2.1453,-2.1455,-2.1457,-2.1458,0,-2.0892,-2.0892,-2.0941,-2.0993,-2.1034,-2.1075,-2.1112,-2.1142,-2.1144,-2.1187,-2.125,-2.1287,-2.136,-2.1421,-2.1475,-2.1497,-2.1479,-2.1477,-2.1496,-2.15,-2.1496,-2.15,-2.1288,-2.1473,-2.1472,-2.1471,-2.147,-2.1469,-2.101,-2.1059,-2.1093,-2.1149,-2.1177,-2.1213,-2.1261,-2.1276,-2.1327,-2.1386,-2.1381,-2.1451,-2.1488,-2.1559,-2.1584,-2.164,-2.1616,-2.1642,-2.1649,-2.1656,-2.1663,-2.1486,-2.1649,-2.1649,-2.1649,-2.1648,-2.1648,0,-2.1173,-2.1193,-2.1245,-2.1298,-2.1343,-2.1319,-2.136,-2.14,-2.1461,-2.1495,-2.1543,-2.1615,-2.1673,-2.1695,-2.1753,-2.1793,-2.1786,-2.1808,-2.1806,-2.1811,-2.168,-2.1659,-2.1812,-2.1812,-2.1812,-2.1812,-2.1812,-2.1812,-2.1263,-2.1346,-2.1349,-2.1446,-2.1466,-2.1533,-2.1558,-2.1591,-2.1619,-2.17,-2.1748,-2.1762,-2.1792,-2.1851,-2.1904,-2.1909,-2.1932,-2.1958,-2.1959,-2.1837,-2.182,-2.1805,-2.1785,-2.1962,-2.1962,-2.2086,-2.2087,-2.2088]},{"header":{"parameterUnit":"m.s-1","parameterCategory":1,"la1":30.2991,"la2":30.254,"lo1":-89.0895,"lo2":-89.0444,"dy":0.0017,"dx":0.0017,"nx":28,"ny":28,"refTime":"2024-10-10T21:00:00:Z","depth":0,"parameterNumber":3,"parameterNumberName":"V-component_of_WINDS"},"data":[0,0,0,0,0,0,0,0,0,0,0,0,0,0,0,0,0,0,0,0,0,0,0,0,0,0,0,0,0,0,0,0,0,0,0,0,0,0,0,0,0,0,0,0,0,0,0,0,0,0,0,0,0,0,0,0,0,0,-4.1137,-4.1137,0,-4.1161,-4.1161,-4.1162,-4.1083,-4.1081,-4.1079,-4.1076,-4.1099,-4.1102,-4.1105,0,0,0,0,0,0,0,0,0,0,0,0,0,-4.102,-4.1022,-4.1137,-4.1137,-4.1137,-4.1161,-4.1161,-4.1162,-4.1084,-4.1081,-4.1078,-4.1075,-4.1098,-4.1102,-4.1105,0,0,0,0,0,0,0,0,0,0,0,0,0,-4.106,-4.1023,-4.1137,-4.1101,-4.1099,-4.1161,-4.1161,-4.1162,-4.1084,-4.1081,-4.1077,-4.1074,-4.1097,-4.1101,-4.1105,-4.1203,0,0,-4.1118,-4.112,0,0,0,0,0,0,0,0,-4.1058,-4.1064,-4.1106,-4.1104,-4.1101,-4.1116,-4.1128,-4.1175,-4.1085,-4.109,-4.1076,-4.1072,-4.1107,-4.1111,-4.1123,-4.1204,-4.1205,-4.1119,-4.1121,-4.1123,-4.1124,0,0,0,0,0,0,0,-4.1055,-4.1063,-4.1146,-4.1107,-4.1104,-4.1083,-4.1085,-4.1137,-4.1118,-4.1089,-4.1083,-4.1087,-4.1105,-4.1119,-4.1123,-4.1205,-4.1119,-4.1122,-4.1125,-4.1127,-4.1366,-4.1369,0,0,0,0,0,0,-4.1057,-4.1061,-4.1146,-4.1147,-4.107,-4.1088,-4.109,-4.1114,-4.1117,-4.1114,-4.1091,-4.1084,-4.1114,-4.1118,-4.1123,-4.1237,-4.1123,-4.1127,-4.1129,-4.1362,-4.1367,-4.1371,0,0,0,0,0,0,-4.1055,-4.1066,-4.1145,-4.1103,-4.1111,-4.1094,-4.1122,-4.1117,-4.113,-4.1118,-4.1114,-4.1108,-4.1111,-4.1117,-4.1183,-4.1236,-4.1129,-4.1133,-4.1357,-4.1363,-4.1369,-4.1465,0,0,0,0,0,0,-4.1052,-4.1065,-4.1103,-4.1104,-4.1114,-4.1206,-4.1125,-4.112,-4.1138,-4.113,-4.1134,-4.1131,-4.1109,-4.1178,-4.1188,-4.124,-4.1136,-4.1353,-4.136,-4.1367,-4.1457,-4.1473,-4.1487,0,0,0,0,0,-4.1048,-4.1129,-4.1105,-4.1116,-4.116,-4.1209,-4.1214,-4.1187,-4.1143,-4.118,-4.1172,-4.1131,-4.1229,-4.1185,-4.1196,-4.125,-4.1349,-4.1358,-4.1366,-4.145,-4.147,-4.1487,0,0,0,0,0,0,-4.1134,-4.1128,-4.1102,-4.1186,-4.1198,-4.1195,-4.1241,-4.1209,-4.1234,-4.1225,-4.1189,-4.1191,-4.1263,-4.1263,-4.1214,-4.1344,-4.1281,-4.1293,-4.1342,-4.136,-4.1375,-4.1374,-4.114,0,0,0,0,0,-4.1162,-4.1203,-4.1196,-4.127,-4.1278,-4.1259,-4.1279,-4.1257,-4.1268,-4.1273,-4.127,-4.1282,-4.1315,-4.1337,-4.1367,-4.1457,-4.1456,-4.1499,-4.1514,-4.1527,-4.1537,-4.1583,-4.1602,-4.1399,-4.1399,-4.1399,0,0,-4.1222,-4.1224,-4.1251,-4.1287,-4.1294,-4.1336,-4.1264,-4.1311,-4.1342,-4.128,-4.1342,-4.134,-4.1351,-4.1429,-4.1463,-4.1431,-4.1593,-4.1538,-4.1548,-4.1551,-4.1594,-4.1613,-4.1631,-4.1405,-4.1404,-4.1403,0,0,-4.1351,-4.1357,-4.142,-4.1428,-4.144,-4.1427,-4.1442,-4.1444,-4.1441,-4.1503,-4.1457,-4.1492,-4.1551,-4.156,-4.1573,-4.1705,-4.1668,-4.1716,-4.1795,-4.1841,-4.1857,-4.1871,-4.1918,-4.1935,-4.1726,-4.1726,-4.1726,0,-4.1423,-4.1486,-4.1456,-4.1506,-4.1523,-4.1469,-4.1531,-4.1541,-4.1562,-4.1574,-4.1539,-4.161,-4.1614,-4.1693,-4.1725,-4.1737,-4.1753,-4.1715,-4.1857,-4.1871,-4.1883,-4.1928,-4.1945,-4.1732,-4.1731,-4.1731,-4.173,0,-4.1573,-4.1617,-4.1666,-4.1688,-4.171,-4.1767,-4.1744,-4.177,-4.1746,-4.1736,-4.1799,-4.1802,-4.1831,-4.1848,-4.1825,-4.1924,-4.1903,-4.1863,-4.1799,-4.1909,-4.195,-4.1967,-4.174,-4.1738,-4.1736,-4.1735,0,0,-4.1758,-4.1763,-4.1781,-4.179,-4.1799,-4.1832,-4.1885,-4.1915,-4.1937,-4.1953,-4.1996,-4.2047,-4.2009,-4.2023,-4.2001,-4.2041,-4.2145,-4.1995,-4.1995,-4.2023,-4.2254,-4.2284,-4.2304,-4.2121,-4.2124,-4.2126,-4.2253,0,-4.1885,-4.1977,-4.1952,-4.2044,-4.2083,-4.2032,-4.2078,-4.2089,-4.2081,-4.2112,-4.2103,-4.2139,-4.2087,-4.2095,-4.2133,-4.2125,-4.2191,-4.2115,-4.216,-4.2162,-4.2159,-4.2326,-4.2358,-4.2477,-4.2269,-4.2271,-4.2273,0,-4.2046,-4.2069,-4.2166,-4.2167,-4.2183,-4.2225,-4.2249,-4.2281,-4.2291,-4.2282,-4.2298,-4.2267,-4.2318,-4.2254,-4.2324,-4.2273,-4.229,-4.2288,-4.2292,-4.2295,-4.2224,-4.2333,-4.2515,-4.2533,-4.2298,-4.2296,-4.2294,0,-4.2171,-4.2226,-4.229,-4.23,-4.2304,-4.2334,-4.2337,-4.2344,-4.2363,-4.2384,-4.2395,-4.2422,-4.2437,-4.2457,-4.2434,-4.239,-4.2507,-4.2441,-4.2501,-4.2502,-4.2528,-4.2527,-4.2715,-4.2539,-4.2539,-4.2539,-4.2538,0,-4.2316,-4.2376,-4.2346,-4.2386,-4.2452,-4.2421,-4.2487,-4.2484,-4.249,-4.2528,-4.2485,-4.2521,-4.2488,-4.252,-4.2502,-4.2562,-4.2569,-4.2563,-4.2558,-4.2567,-4.2568,-4.2577,-4.2568,-4.2543,-4.2542,-4.2541,-4.2541,0,-4.2466,-4.2448,-4.2515,-4.2514,-4.2514,-4.2563,-4.2561,-4.2597,-4.2586,-4.2634,-4.2643,-4.2626,-4.2662,-4.2641,-4.2677,-4.2665,-4.2744,-4.2727,-4.2741,-4.2736,-4.2797,-4.2791,-4.2997,-4.3023,-4.2831,-4.2833,-4.2835,0,-4.256,-4.2605,-4.2609,-4.2631,-4.2637,-4.2674,-4.2693,-4.2664,-4.2685,-4.27,-4.2734,-4.2767,-4.2791,-4.2851,-4.2841,-4.2869,-4.2852,-4.2922,-4.2856,-4.2864,-4.2853,-4.285,-4.2855,-4.2936,-4.2938,-4.294,-4.2941,0,-4.2728,-4.2716,-4.2746,-4.2773,-4.2798,-4.2817,-4.2833,-4.2854,-4.2824,-4.2851,-4.2888,-4.2907,-4.2944,-4.2977,-4.3,-4.3002,-4.2967,-4.2962,-4.2978,-4.2988,-4.2994,-4.2991,-4.2777,-4.2958,-4.2956,-4.2955,-4.2954,-4.2953,-4.2852,-4.289,-4.2898,-4.2933,-4.2942,-4.2958,-4.2991,-4.2984,-4.3015,-4.3044,-4.3024,-4.3068,-4.3075,-4.3103,-4.311,-4.3142,-4.3114,-4.3136,-4.3141,-4.3147,-4.3156,-4.2989,-4.3146,-4.3146,-4.3146,-4.3145,-4.3145,0,-4.3018,-4.302,-4.3052,-4.3076,-4.3103,-4.3068,-4.3084,-4.3108,-4.3147,-4.3158,-4.3183,-4.3225,-4.3256,-4.3249,-4.3277,-4.3304,-4.3289,-4.3313,-4.331,-4.3311,-4.318,-4.3164,-4.3325,-4.3325,-4.3325,-4.3325,-4.3325,-4.3325,-4.3107,-4.3169,-4.3159,-4.3225,-4.3226,-4.3269,-4.3281,-4.3295,-4.3303,-4.3352,-4.3378,-4.3373,-4.3376,-4.3404,-4.3431,-4.3428,-4.344,-4.347,-4.3461,-4.3338,-4.332,-4.3304,-4.3288,-4.3473,-4.3473,-4.3589,-4.359,-4.3591]}]]